UAE35Q EDDM-OMDB

Flight info

Callsign UAE35Q
Flight time N/A
Altitude 33000
Route VAVOR3W VAVOR M867 RADIZ DCT PESUT DCT PALEZ DCT NERRA DCT KOFER DCT PINDO DCT KEA UN132 KUPIS DCT LAPSO DCT GUDIS/N0480F350 DCT KAVOS DCT EVORA DCT LAKTO L560 SERMA L550 KARIK B411 DEESA Y415 NIMAR G662 KSA M321 RESAL T533 RAPMA DCT KUVSO DCT RIBOT M550 GOLGU DCT UKRAG G783 ASPED Q308 KIPOK Q568 IMPED
Aircraft B77W/H-SDE1E2E3FGHIJ2J3J4J5M1RWXY/LB1D1

Departure

Time N/A
Airport Munich Airport (EDDM)

Arrival

Time 2026-05-08 04:16
Airport Dubai International Airport (OMDB)
Time Latitude Longitude Altitude Speed Heading
2026-05-08 04:09 25.06886 55.74739 9043 ft 270 kts 288°
2026-05-08 04:09 25.07458 55.72816 8879 ft 262 kts 288°
2026-05-08 04:10 25.08016 55.70940 8738 ft 254 kts 288°
2026-05-08 04:10 25.08565 55.69094 8386 ft 252 kts 287°
2026-05-08 04:10 25.09108 55.67268 7783 ft 250 kts 288°
2026-05-08 04:10 25.09649 55.65445 7117 ft 250 kts 288°
2026-05-08 04:11 25.10197 55.63623 6471 ft 250 kts 291°
2026-05-08 04:11 25.10997 55.61926 5809 ft 249 kts 301°
2026-05-08 04:11 25.11944 55.60341 5213 ft 245 kts 303°
2026-05-08 04:11 25.12879 55.58801 4731 ft 238 kts 301°
2026-05-08 04:12 25.13742 55.57286 4269 ft 230 kts 300°
2026-05-08 04:12 25.14570 55.55796 3729 ft 227 kts 300°
2026-05-08 04:12 25.15374 55.54345 3243 ft 222 kts 300°
2026-05-08 04:12 25.16170 55.52908 2714 ft 218 kts 300°
2026-05-08 04:13 25.16945 55.51505 2396 ft 210 kts 300°
2026-05-08 04:13 25.17695 55.50154 2165 ft 200 kts 300°
2026-05-08 04:13 25.18403 55.48875 1876 ft 189 kts 300°
2026-05-08 04:13 25.19060 55.47689 1649 ft 178 kts 300°
2026-05-08 04:14 25.19682 55.46565 1436 ft 163 kts 300°
2026-05-08 04:14 25.20249 55.45541 1226 ft 150 kts 300°
2026-05-08 04:14 25.20788 55.44568 1078 ft 149 kts 300°
2026-05-08 04:14 25.21326 55.43589 871 ft 150 kts 299°
2026-05-08 04:15 25.21868 55.42584 674 ft 154 kts 299°
2026-05-08 04:15 25.22432 55.41579 477 ft 156 kts 300°
2026-05-08 04:15 25.23003 55.40542 294 ft 159 kts 298°
2026-05-08 04:15 25.23576 55.39515 63 ft 155 kts 299°
2026-05-08 04:16 25.24105 55.38555 30 ft 133 kts 302°
2026-05-08 04:16 25.24490 55.37864 29 ft 79 kts 302°
2026-05-08 04:16 25.24689 55.37505 27 ft 40 kts 301°
2026-05-08 04:16 25.24777 55.37258 29 ft 21 kts 277°
2026-05-08 04:17 25.24780 55.37135 28 ft 14 kts 255°
2026-05-08 04:17 25.24719 55.37115 27 ft 10 kts 146°
2026-05-08 04:17 25.24675 55.37173 27 ft 10 kts 125°
2026-05-08 04:17 25.24637 55.37228 26 ft 6 kts 153°
2026-05-08 04:18 25.24593 55.37219 30 ft 7 kts 200°
2026-05-08 04:18 25.24550 55.37195 29 ft 7 kts 209°
2026-05-08 04:18 25.24504 55.37164 28 ft 8 kts 212°
2026-05-08 04:18 25.24485 55.37151 29 ft 2 kts 212°
2026-05-08 04:19 25.24474 55.37143 29 ft 1 kts 211°
2026-05-08 04:19 25.24471 55.37142 29 ft 0 kts 211°